This demonstration page uses our WeatherBlox Daily Observations layout. Learn more.

Hourly Observations for January 16, 2015

Temp ( °F °C ) Dew Point ( °F °C ) Humidity (%) Winds ( mph kmh ) Pressure ( in mb ) Visibility ( mi km ) Precip ( " mm )
12:15 am 00:15 Clear 31 -0.5 24 -4.6 74 74 Calm 30.24 1024 10 16.0934 0 0
12:35 am 00:35 Clear 32 0.1 24 -4.5 72 72 SW 6 9 30.24 1024 10 16.0934 0 0
12:55 am 00:55 Clear 33 0.5 25 -4 72 72 SW 8 13 30.21 1023 10 16.0934 0 0
1:15 am 01:15 Clear 34 0.9 25 -3.8 71 71 SW 7 11 30.18 1022 10 16.0934 0 0
1:35 am 01:35 Clear 35 1.5 26 -3.5 70 70 WSW 7 11 30.18 1022 10 16.0934 0 0
1:55 am 01:55 Clear 32 0.2 25 -4 74 74 WSW 5 7 30.21 1023 10 16.0934 0 0
2:15 am 02:15 Clear 31 -0.6 24 -4.7 74 74 Calm 30.21 1023 10 16.0934 0 0
2:35 am 02:35 Clear 30 -1.1 24 -4.6 77 77 Calm 30.21 1023 10 16.0934 0 0
2:55 am 02:55 Clear 29 -1.5 24 -4.7 79 79 SSW 6 9 30.21 1023 10 16.0934 0 0
3:15 am 03:15 Clear 28 -2 23 -4.9 81 81 SW 6 9 30.21 1023 10 16.0934 0 0
3:35 am 03:35 Clear 29 -1.5 24 -4.5 80 80 SW 6 9 30.18 1022 10 16.0934 0 0
3:55 am 03:55 Clear 31 -0.5 24 -4.2 76 76 SW 7 11 30.18 1022 10 16.0934 0 0
4:15 am 04:15 Clear 31 -0.5 24 -4.3 76 76 SW 10 17 30.18 1022 10 16.0934 0 0
4:35 am 04:35 Clear 31 -0.5 24 -4.4 75 75 SW 9 15 30.18 1022 10 16.0934 0 0
4:55 am 04:55 Clear 31 -0.3 24 -4.2 75 75 SW 12 19 30.12 1020 10 16.0934 0 0
5:15 am 05:15 Clear 31 -0.4 24 -4.5 74 74 SW 8 13 30.12 1020 10 16.0934 0 0
5:35 am 05:35 Clear 32 0.1 24 -4.5 72 72 WSW 12 19 30.12 1020 10 16.0934 0 0
5:55 am 05:55 Clear 32 0 24 -4.5 72 72 SW 12 19 30.12 1020 10 16.0934 0 0
6:15 am 06:15 Clear 31 -0.3 24 -4.6 73 73 WSW 12 19 30.09 1019 10 16.0934 0 0
6:35 am 06:35 Clear 31 -0.5 24 -4.6 74 74 WSW 9 15 30.09 1019 10 16.0934 0 0
6:55 am 06:55 Clear 32 0.1 24 -4.3 73 73 WSW 10 17 30.09 1019 10 16.0934 0 0
7:15 am 07:15 Clear 32 0 24 -4.3 73 73 WSW 10 17 30.09 1019 10 16.0934 0 0
7:35 am 07:35 Clear 33 0.4 24 -4.3 71 71 WSW 10 17 30.09 1019 10 16.0934 0 0
7:55 am 07:55 Clear 32 0.1 24 -4.4 72 72 WSW 12 19 30.09 1019 10 16.0934 0 0
8:15 am 08:15 Sunny 32 0 24 -4.5 72 72 WSW 9 15 30.09 1019 10 16.0934 0 0
8:35 am 08:35 Sunny 32 0 24 -4.4 73 73 WSW 8 13 30.06 1018 10 16.0934 0 0
8:55 am 08:55 Sunny 32 0 24 -4.2 74 74 WSW 6 9 30.09 1019 10 16.0934 0 0
9:15 am 09:15 Sunny 33 0.5 25 -4.1 72 72 WSW 7 11 30.09 1019 10 16.0934 0 0
9:35 am 09:35 Sunny 34 1.2 25 -3.9 69 69 WSW 6 9 30.06 1018 10 16.0934 0 0
9:55 am 09:55 Sunny 37 2.6 26 -3.6 64 64 WSW 7 11 30.03 1017 10 16.0934 0 0
10:15 am 10:15 Sunny 37 2.7 26 -3.4 65 65 SW 7 11 30.03 1017 10 16.0934 0 0
10:35 am 10:35 Sunny 40 4.2 27 -2.8 61 61 WSW 7 11 30.03 1017 10 16.0934 0 0
10:55 am 10:55 Sunny 42 5.8 26 -3.1 53 53 W 10 17 30 1016 10 16.0934 0 0
11:15 am 11:15 Sunny 45 7.2 26 -3.1 48 48 W 9 15 30 1016 10 16.0934 0 0
11:35 am 11:35 Sunny 47 8.2 27 -2.9 46 46 WSW 9 15 30 1016 10 16.0934 0 0
11:55 am 11:55 Sunny 46 8 27 -2.8 47 47 W 10 17 30 1016 10 16.0934 0 0
12:15 pm 12:15 Sunny 47 8.4 27 -2.9 45 45 WSW 6 9 29.97 1015 10 16.0934 0 0
12:35 pm 12:35 Sunny 50 9.9 25 -3.7 38 38 W 7 11 29.94 1014 10 16.0934 0 0
12:55 pm 12:55 Sunny 52 10.9 26 -3.2 37 37 SW 7 11 29.91 1013 10 16.0934 0 0
1:15 pm 13:15 Sunny 51 10.7 26 -3.3 38 38 WSW 9 15 29.91 1013 10 16.0934 0 0
1:35 pm 13:35 Sunny 53 11.6 25 -4 34 34 WSW 6 9 29.85 1011 10 16.0934 0 0
1:55 pm 13:55 Sunny 55 12.7 24 -4.2 31 31 WSW 6 9 29.85 1011 10 16.0934 0 0
2:15 pm 14:15 Sunny 53 11.5 26 -3.2 36 36 SW 7 11 29.83 1010 10 16.0934 0 0
2:35 pm 14:35 Sunny 55 12.8 26 -3.4 32 32 SW 6 9 29.83 1010 10 16.0934 0 0
2:55 pm 14:55 Sunny 57 13.7 23 -4.9 27 27 W 5 7 29.83 1010 10 16.0934 0 0
3:15 pm 15:15 Sunny 56 13.2 24 -4.5 29 29 WSW 5 7 29.83 1010 10 16.0934 0 0
3:35 pm 15:35 Sunny 55 12.5 24 -4.2 31 31 SSW 10 17 29.83 1010 10 16.0934 0 0
3:55 pm 15:55 Sunny 52 11.2 28 -2.4 39 39 SSW 8 13 29.85 1011 10 16.0934 0 0
4:15 pm 16:15 Sunny 49 9.7 28 -2 44 44 SSW 9 15 29.83 1010 10 16.0934 0 0
4:35 pm 16:35 Sunny 47 8.5 30 -1.1 51 51 SSW 6 9 29.83 1010 10 16.0934 0 0
4:55 pm 16:55 Sunny 48 8.7 29 -1.5 49 49 SSW 6 9 29.83 1010 10 16.0934 0 0
5:15 pm 17:15 Sunny 46 7.5 29 -1.5 53 53 SSW 7 11 29.83 1010 10 16.0934 0 0
5:35 pm 17:35 Sunny 46 7.7 29 -1.5 53 53 SSW 7 11 29.83 1010 10 16.0934 0 0
5:55 pm 17:55 Clear 44 6.4 28 -2 55 55 SSW 3 6 29.85 1011 10 16.0934 0 0
6:15 pm 18:15 Clear 41 5.2 27 -2.6 57 57 Calm 29.85 1011 10 16.0934 0 0
6:35 pm 18:35 Clear 41 5 28 -2.5 59 59 SW 3 6 29.85 1011 10 16.0934 0 0
6:55 pm 18:55 Clear 41 5 28 -2.4 59 59 SW 6 9 29.85 1011 10 16.0934 0 0
7:15 pm 19:15 Clear 40 4.7 28 -2.2 61 61 SW 3 6 29.85 1011 10 16.0934 0 0
7:35 pm 19:35 Clear 40 4.4 28 -2.5 61 61 WSW 5 7 29.83 1010 10 16.0934 0 0
7:55 pm 19:55 Clear 40 4.3 28 -2.5 62 62 SW 6 9 29.83 1010 10 16.0934 0 0
8:15 pm 20:15 Clear 39 3.7 28 -2.5 64 64 SW 7 11 29.83 1010 10 16.0934 0 0
8:35 pm 20:35 Clear 38 3.6 27 -2.7 64 64 Calm 29.83 1010 10 16.0934 0 0
8:55 pm 20:55 Clear 36 2.3 27 -3 68 68 WNW 3 6 29.85 1011 10 16.0934 0 0
9:15 pm 21:15 Clear 35 1.4 27 -3 73 73 S 6 9 29.85 1011 10 16.0934 0 0
9:35 pm 21:35 Clear 35 1.7 28 -2.5 74 74 S 8 13 29.85 1011 10 16.0934 0 0
9:55 pm 21:55 Clear 36 2.2 27 -2.6 71 71 SW 3 6 29.85 1011 10 16.0934 0 0
10:15 pm 22:15 Clear 37 2.8 27 -2.6 68 68 W 6 9 29.85 1011 10 16.0934 0 0
10:35 pm 22:35 Clear 36 2 28 -2.3 73 73 W 6 9 29.85 1011 10 16.0934 0 0
10:55 pm 22:55 Clear 36 2.2 28 -2.2 73 73 WNW 3 6 29.85 1011 10 16.0934 0 0
11:15 pm 23:15 Mostly Cloudy 38 3.3 30 -1.2 73 73 NW 8 13 29.85 1011 10 16.0934 0 0
11:35 pm 23:35 Partly Cloudy 40 4.4 30 -0.9 69 69 WNW 9 15 29.83 1010 10 16.0934 0 0
11:55 pm 23:55 Clear 41 5.1 29 -1.6 62 62 WNW 5 7 29.83 1010 10 16.0934 0 0

Powered by AerisWeather